• Processing (Info)

  • MPEC 1999-J34 : 1999 JV3

    The following Minor Planet Electronic Circular may be linked-to from your own Web pages, but must not otherwise be redistributed electronically.

    A form allowing access to any MPEC is at the bottom of this page.


    Read MPEC 1999-J33 Read MPEC 1999-J35


    M.P.E.C. 1999-J34                                Issued 1999 May 13, 13:21 UT
    
         The Minor Planet Electronic Circulars contain information on unusual
             minor planets and routine data on comets.  They are published
       on behalf of Commission 20 of the International Astronomical Union by the
              Minor Planet Center, Smithsonian Astrophysical Observatory,
                              Cambridge, MA 02138, U.S.A.
    
                 BMARSDEN@CFA.HARVARD.EDU or GWILLIAMS@CFA.HARVARD.EDU
              URL http://cfa-www.harvard.edu/iau/mpc.html  ISSN 1523-6714
    
                                       1999 JV3
    
    Observations:
         J99J03V* C1999 05 10.28605 15 42 39.94 -17 28 36.0          17.9        704
         J99J03V  C1999 05 10.29829 15 42 39.06 -17 27 55.4          17.5        704
         J99J03V  C1999 05 10.31047 15 42 38.31 -17 27 16.2                      704
         J99J03V  C1999 05 10.32266 15 42 37.47 -17 26 36.6          17.5        704
         J99J03V  C1999 05 10.33483 15 42 36.57 -17 25 57.5                      704
         J99J03V  C1999 05 11.12958 15 41 51.29 -16 41 59.7                      758
         J99J03V  C1999 05 11.13439 15 41 50.94 -16 41 44.5                      758
         J99J03V  C1999 05 11.13890 15 41 50.66 -16 41 29.2                      758
         J99J03V  C1999 05 11.30838 15 41 39.15 -16 31 59.5          16.1 V      713
         J99J03V  C1999 05 11.32308 15 41 38.02 -16 31 08.8          15.9 V      713
         J99J03V  C1999 05 11.33413 15 41 37.38 -16 30 31.5          16.3 V      713
         J99J03V  C1999 05 11.65281 15 41 17.74 -16 12 13.5          17.5 V      903
         J99J03V  C1999 05 11.65547 15 41 17.58 -16 12 04.4                      903
         J99J03V  C1999 05 11.66037 15 41 17.23 -16 11 47.1                      903
         J99J03V  C1999 05 11.66767 15 41 16.67 -16 11 19.7                      900
         J99J03V  C1999 05 11.67608 15 41 16.00 -16 10 50.4          17.1 V      900
         J99J03V  C1999 05 12.31227 15 40 36.02 -15 33 23.4                      719
         J99J03V IC1999 05 12.31529 15 40 35.77 -15 33 13.2                      719
         J99J03V  C1999 05 12.64447 15 40 14.26 -15 12 45.6          16.4 R      426
         J99J03V  C1999 05 12.64809 15 40 13.98 -15 12 32.3          16.5 R      426
         J99J03V  C1999 05 12.65184 15 40 13.69 -15 12 19.0          16.5 R      426
         J99J03V  C1999 05 12.89898 15 39 58.52 -14 57 44.3          17.6 V      620
         J99J03V  C1999 05 12.90601 15 39 58.02 -14 57 18.6          17.4 V      620
         J99J03V  C1999 05 12.91134 15 39 57.59 -14 56 58.3          17.1 V      620
         J99J03V  C1999 05 12.91527 15 39 57.27 -14 56 44.8          17.4 V      620
         J99J03V  C1999 05 13.24118 15 39 35.19 -14 36 25.9                      719
         J99J03V  C1999 05 13.24453 15 39 34.93 -14 36 13.6                      719
         J99J03V  C1999 05 13.28248 15 39 31.88 -14 33 50.6                      719
         J99J03V  C1999 05 13.28607 15 39 31.64 -14 33 38.0                      719
    
    Observer details:
    426 Woomera.  Observer F. B. Zoltowski.  0.30-m f/3.3 Schmidt-Cassegrain + CCD.
    620 Observatorio Astronomico de Mallorca.  Observers A. Lopez, R. Pacheco.
        0.30-m f/3.3 Schmidt-Cassegrain + CCD.
    704 Lincoln Laboratory ETS, New Mexico.  Observers M. Blythe, F. Shelly,
        M. Bezpalko, M. Elowitz.  Measurers J. Stuart, H. Viggh, R. Sayer.  1.0-m
        f/2.15 reflector + CCD.
    713 Thornton.  Observer R. A. Koff.  0.20-m f/10 Schmidt-Cassegrain + CCD.
    719 Etscorn Observatory.  Observer D. A. Klinglesmith III, R. Huber.  0.355-m
        Schmidt-Cassegrain + CCD.
    758 BCC Observatory, Cocoa.  Observer I. P. Griffin.  0.30-m f/5 Maksutov
        + CCD.
    900 Moriyama.  Observer Y. Ikari.  0.25-m f/6.3 reflector + CCD.
    903 Fukuchiyama.  Observer M. Yoshimi.  0.25-m f/6.3 Schmidt-Cassegrain + CCD.
    
    Orbital elements:
    1999 JV3
    Epoch 1999 May 2.0 TT = JDT 2451300.5                   Williams
    M 303.72054              (2000.0)            P               Q
    n   0.56375736     Peri.  101.28979     +0.84452788     +0.49694919
    a   1.4512467      Node   229.25699     -0.53313932     +0.81527462
    e   0.4141637      Incl.   15.26965     +0.05035004     +0.29726890
    P   1.75           H   18.9           G   0.15
    From 29 observations 1999 May 10-13.
    
    Ephemeris:
    1999 JV3                 a,e,i = 1.45, 0.41, 15                  q = 0.8502
    Date    TT    R. A. (2000) Decl.     Delta      r     Elong.  Phase     V
    1999 05 12    15 40.93   -15 51.6    0.271    1.279   173.2     5.4    17.0
    1999 05 17    15 34.89   -10 17.2    0.238    1.247   171.1     7.2    16.8
    1999 05 22    15 27.42   -03 16.0    0.211    1.215   161.9    15.0    16.8
    1999 05 27    15 18.60   +05 15.9    0.190    1.182   150.3    25.1    16.8
    1999 06 01    15 08.46   +15 06.7    0.176    1.150   137.4    36.6    16.9
    1999 06 06    14 56.94   +25 44.7    0.169    1.118   123.9    48.9    17.1
    1999 06 11    14 43.75   +36 24.1    0.168    1.086   110.7    61.0    17.4
    1999 06 16    14 28.31   +46 23.0    0.172    1.055    98.4    72.3    17.7
    1999 06 21    14 09.30   +55 17.1    0.181    1.025    87.6    82.2    18.1
    1999 06 26    13 43.90   +62 58.0    0.193    0.996    78.5    90.6    18.5
    1999 07 01    13 06.67   +69 20.9    0.207    0.969    70.9    97.5    18.9
    1999 07 06    12 08.6    +74 11.2    0.223    0.943    64.7   102.9    19.3
    1999 07 11    10 42.8    +76 54.1    0.241    0.920    60.0   106.9    19.6
    1999 07 16    09 06.0    +76 57.5    0.259    0.900    56.5   109.6    19.9
    1999 07 21    07 51.4    +74 47.7    0.279    0.882    54.2   110.9    20.1
    1999 07 26    07 06.5    +71 26.5    0.300    0.868    53.0   111.0    20.2
    1999 07 31    06 42.24   +67 37.1    0.323    0.858    52.6   110.0    20.3
    1999 08 05    06 30.41   +63 40.8    0.346    0.852    53.0   108.2    20.3
    1999 08 10    06 26.12   +59 47.5    0.369    0.850    53.9   105.6    20.3
    1999 08 15    06 26.52   +56 01.8    0.393    0.852    55.2   102.5    20.3
    1999 08 20    06 29.92   +52 25.1    0.416    0.859    56.9    99.1    20.3
    1999 08 25    06 35.25   +48 57.9    0.439    0.869    58.9    95.5    20.2
    1999 08 30    06 41.82   +45 40.0    0.461    0.883    61.0    91.9    20.2
    1999 09 04    06 49.11   +42 31.0    0.481    0.901    63.2    88.3    20.2
    1999 09 09    06 56.70   +39 30.0    0.499    0.922    65.7    84.8    20.2
    1999 09 14    07 04.28   +36 36.2    0.515    0.945    68.2    81.4    20.2
    1999 09 19    07 11.62   +33 48.4    0.529    0.971    70.9    78.1    20.2
    1999 09 24    07 18.55   +31 05.9    0.540    0.998    73.8    74.9    20.2
    1999 09 29    07 24.93   +28 28.0    0.549    1.027    76.8    71.8    20.2
    1999 10 04    07 30.62   +25 54.0    0.556    1.057    80.0    68.8    20.2
    1999 10 09    07 35.47   +23 23.2    0.560    1.088    83.5    65.8    20.1
    1999 10 14    07 39.37   +20 55.3    0.561    1.120    87.1    62.8    20.1
    1999 10 19    07 42.21   +18 29.8    0.561    1.152    91.0    59.8    20.1
    1999 10 24    07 43.87   +16 06.5    0.560    1.184    95.1    56.8    20.1
    1999 10 29    07 44.26   +13 45.5    0.557    1.217    99.6    53.6    20.0
    1999 11 03    07 43.27   +11 26.8    0.553    1.249   104.3    50.3    20.0
    1999 11 08    07 40.77   +09 11.1    0.549    1.282   109.2    46.9    19.9
    1999 11 13    07 36.68   +06 59.4    0.546    1.313   114.5    43.3    19.8
    1999 11 18    07 30.99   +04 53.0    0.543    1.345   120.0    39.5    19.8
    1999 11 23    07 23.74   +02 53.9    0.542    1.376   125.7    35.6    19.7
    1999 11 28    07 15.03   +01 04.2    0.544    1.407   131.4    31.7    19.7
    1999 12 03    07 05.06   -00 33.4    0.549    1.437   137.0    27.9    19.6
    1999 12 08    06 54.11   -01 56.4    0.558    1.467   142.3    24.3    19.6
    1999 12 13    06 42.61   -03 02.6    0.571    1.496   146.8    21.1    19.6
    1999 12 18    06 31.02   -03 50.9    0.589    1.524   150.2    18.7    19.6
    1999 12 23    06 19.80   -04 21.1    0.613    1.551   151.9    17.4    19.7
    1999 12 28    06 09.34   -04 34.2    0.642    1.578   151.8    17.1    19.8
    2000 01 02    05 59.97   -04 31.8    0.675    1.605   150.1    17.8    20.0
    2000 01 07    05 51.89   -04 16.2    0.714    1.630   147.2    19.1    20.2
    2000 01 12    05 45.26   -03 49.9    0.757    1.655   143.6    20.7    20.4
    2000 01 17    05 40.10   -03 15.4    0.805    1.679   139.5    22.4    20.6
    2000 01 22    05 36.39   -02 35.0    0.856    1.702   135.3    24.0    20.8
    2000 01 27    05 34.03   -01 50.6    0.910    1.725   131.0    25.5    21.0
    2000 02 01    05 32.92   -01 03.9    0.968    1.746   126.8    26.8    21.2
    2000 02 06    05 32.97   -00 16.0    1.028    1.768   122.7    28.0    21.4
    2000 02 11    05 34.07   +00 32.0    1.090    1.788   118.7    29.0    21.6
    2000 02 16    05 36.11   +01 19.3    1.154    1.807   114.8    29.7    21.8
    2000 02 21    05 38.99   +02 05.3    1.220    1.826   111.1    30.3    21.9
    2000 02 26    05 42.60   +02 49.5    1.287    1.844   107.4    30.8    22.1
    
    Gareth V. Williams           (C) Copyright 1999 MPC           M.P.E.C. 1999-J34
    

    Read MPEC 1999-J33 Read MPEC 1999-J35


    MPEC number:

    Enter an MPEC number in one of the following forms:

    • 1997-B01 (the full form)
    • J97B01 (the packed version of the full form)
    • B01 (the abbreviated form)